User: anonymous   Login
Location: Unspecified
(0.0000°N, 0.0000°E)
Time: 21:08:05
(UTC+00:00)
Language:

Tiangong 2 - Orbit

View from above orbital plane
View from above orbital plane
View from above satellite
View from above satellite

Ground track
Ground track

The orbit data is extracted from the following two-line orbital elements,

1 41765U 16057A   18109.26268869  .00004198  00000-0  53073-4 0  9992
2 41765  42.7855 334.2409 0004174 230.3380 290.8127 15.60989437 90770
Epoch (UTC): 19 April 2018 06:18:16
Eccentricity: 0.0004174
inclination: 42.7855°
perigee height: 382 km
apogee height: 387 km
right ascension of ascending node: 334.2409°
argument of perigee: 230.3380°
revolutions per day: 15.60989437
mean anomaly at epoch: 290.8127°
orbit number at epoch: 9077

The dashed part of the orbit path shows where the satellite is in the earth's shadow,  

DLR